This demonstration page uses our WeatherBlox Daily Observations layout. Learn more.

Left ArrowRight Arrow

36.17497, -115.13722

Hourly Observations for January 21, 2017

Temp ( °F °C ) Dew Point ( °F °C ) Humidity (%) Winds ( mph kmh ) Pressure ( in mb ) Visibility ( mi km ) Precip ( " mm )
12:53 am 00:53 Partly Cloudy with Light Rain 45 7.2 36 2.2 71 71 NE 7 11 29.38 995 10 16.0934 0 0.0254
1:53 am 01:53 Mostly Cloudy with Light Rain 43 6.1 37 2.8 80 80 WNW 5 7 29.42 996 10 16.0934 0 0.0254
2:53 am 02:53 Partly Cloudy with Light Rain 46 7.8 32 0 58 58 WSW 6 9 29.44 997 10 16.0934 0 0.0254
3:53 am 03:53 Clear with Light Rain 44 6.7 31 -0.6 60 60 VRB 3 6 29.47 998 10 16.0934 0 0.0254
4:53 am 04:53 Clear with Light Rain 42 5.6 33 0.6 71 71 Calm 29.51 999 10 16.0934 0 0.0254
5:53 am 05:53 Mostly Clear with Light Rain 43 6.1 32 0 65 65 WNW 7 11 29.55 1001 10 16.0934 0 0.0254
6:53 am 06:53 Partly Cloudy with Light Rain 43 6.1 32 0 65 65 WNW 9 15 29.62 1003 10 16.0934 0 0.0254
7:53 am 07:53 Sunny with Light Rain 45 7.2 32 0 61 61 WNW 10 17 29.65 1004 10 16.0934 0 0.0254
8:53 am 08:53 Sunny with Light Rain 48 8.9 32 0 54 54 NW 17 28 29.7 1006 10 16.0934 0 0.0254
9:53 am 09:53 Sunny with Light Rain 50 10 33 0.6 52 52 NNW 15 24 29.75 1007 10 16.0934 0 0.0254
10:53 am 10:53 Sunny with Light Rain 51 10.6 31 -0.6 46 46 NW 14 22 29.79 1009 10 16.0934 0 0.0254
11:53 am 11:53 Sunny with Light Rain 53 11.7 31 -0.6 43 43 NNW 18 30 29.78 1009 10 16.0934 0 0.0254
12:53 pm 12:53 Sunny 55 12.8 30 -1.1 38 38 NNW 13 20 29.79 1009 10 16.0934 0 0.0254
1:53 pm 13:53 Sunny 55 12.8 28 -2.2 35 35 N 10 17 29.82 1010 10 16.0934 0 0
2:53 pm 14:53 Mostly Sunny 55 12.8 30 -1.1 38 38 WSW 6 9 29.85 1011 10 16.0934 0 0
3:53 pm 15:53 Mostly Sunny 55 12.8 28 -2.2 35 35 VRB 3 6 29.89 1012 10 16.0934 0 0
4:53 pm 16:53 Sunny 53 11.7 29 -1.7 40 40 NNW 9 15 29.91 1013 10 16.0934 0 0
5:53 pm 17:53 Clear 51 10.6 30 -1.1 44 44 NW 3 6 29.96 1014 10 16.0934 0 0
6:53 pm 18:53 Clear 47 8.3 30 -1.1 52 52 WNW 6 9 30 1016 10 16.0934 0 0
7:53 pm 19:53 Clear 46 7.8 30 -1.1 54 54 Calm 30.02 1017 10 16.0934 0 0
8:53 pm 20:53 Clear 45 7.2 30 -1.1 56 56 SSW 3 6 30.05 1018 10 16.0934 0 0
9:53 pm 21:53 Clear 44 6.7 33 0.6 65 65 Calm 30.06 1018 10 16.0934 0 0
10:53 pm 22:53 Mostly Clear 45 7.2 32 0 61 61 Calm 30.07 1018 10 16.0934 0 0
11:53 pm 23:53 Clear 44 6.7 34 1.1 68 68 ENE 6 9 30.06 1018 10 16.0934 0 0

Powered by AerisWeather